SUPERBIRD 8 (43271 NORAD) Tracking and Keplerian Element Data

This shows tracking and keplerian element data for the satellite.

Feedback or suggestion? Click here.




ElementValue
Catalog43271
NameSUPERBIRD 8
Epoch Orbit413
Epoch Day139.83976667
Epoch Year2019
RAAN86.3282
Inclination0.0221
Eccentricity0.0001687
Argument of Perigee345.5458
Mean Anonmoly269.6234
Mean Motion1.0027042
Decay Rate-1.03E-06
L11 43271U 18033A 19139.83976667 -.00000103 00000-0 00000+0 0 9991
L22 43271 0.0221 86.3282 0001687 345.5458 269.6234 1.00270420 4135

Live tracking and technical data element details for SUPERBIRD 8 (NORAD 43271). SUPERBIRD 8 can be tracked NOW for your location showing map with azimuth and elevation plus other details from your city location.

Track the satellite on the map from your city or location and see movement details for azimuth, elevation, latitude, longitude, range, height, and movement on the map or in text.







IsCatalogInMostPopularTable: catalog: 43271, numindb: 353
Update: records affected: 1



GetName: 43271 SUPERBIRD 8

Hit Count: updated at: Tue, 21 May 2019 20:53:41 GMT